Hourly Weather Kozlica

Today, 23 October, Friday

Time Temperature Precipitation Wind Pressure Humidity
00:00 +12°C° 0 mm 1 mps 746 mmHg 85%
01:00 +10°C° 0 mm 2 mps 746 mmHg 86%
02:00 +10°C° 0 mm 2 mps 746 mmHg 86%
03:00 +10°C° 0 mm 2 mps 746 mmHg 85%
04:00 +11°C° 0 mm 1 mps 746 mmHg 84%
05:00 +11°C° 0 mm 1 mps 746 mmHg 82%
06:00 +11°C° 0 mm 1 mps 745 mmHg 79%
07:00 +12°C° 0 mm 1 mps 745 mmHg 77%
08:00 +13°C° 0 mm 1 mps 745 mmHg 73%
09:00 +14°C° 0 mm 1 mps 745 mmHg 70%
10:00 +15°C° 0 mm 1 mps 745 mmHg 66%
11:00 +16°C° 0 mm 1 mps 745 mmHg 64%
12:00 +18°C° 0 mm 1 mps 744 mmHg 62%
13:00 +19°C° 0 mm 1 mps 744 mmHg 60%
14:00 +13°C° 0 mm 3 mps 743 mmHg 82%
15:00 +14°C° 0 mm 2 mps 743 mmHg 78%
16:00 +15°C° 0 mm 1 mps 743 mmHg 73%
17:00 +14°C° 0 mm 1 mps 743 mmHg 76%
18:00 +14°C° 0 mm 1 mps 743 mmHg 79%
19:00 +13°C° 0 mm 1 mps 743 mmHg 82%
20:00 +13°C° 0 mm 1 mps 743 mmHg 84%
21:00 +12°C° 0 mm 1 mps 743 mmHg 85%
22:00 +12°C° 0 mm 1 mps 743 mmHg 87%
23:00 +12°C° 0 mm 1 mps 743 mmHg 88%

Tomorrow, 24 October, Saturday

Time Temperature Precipitation Wind Pressure Humidity
00:00 +12°C° 0 mm 1 mps 743 mmHg 89%
01:00 +11°C° 0 mm 1 mps 743 mmHg 90%
02:00 +12°C° 0 mm 2 mps 743 mmHg 88%
03:00 +12°C° 0 mm 2 mps 742 mmHg 87%
04:00 +12°C° 0 mm 2 mps 742 mmHg 86%
05:00 +12°C° 0.3 mm 2 mps 743 mmHg 87%
06:00 +11°C° 0.3 mm 3 mps 743 mmHg 88%
07:00 +11°C° 0.3 mm 3 mps 743 mmHg 88%
08:00 +11°C° 0.7 mm 3 mps 743 mmHg 90%
09:00 +12°C° 0.7 mm 3 mps 744 mmHg 91%
10:00 +12°C° 0.7 mm 4 mps 744 mmHg 92%
11:00 +13°C° 0 mm 4 mps 744 mmHg 87%
12:00 +14°C° 0 mm 4 mps 745 mmHg 82%
13:00 +15°C° 0 mm 4 mps 745 mmHg 77%
14:00 +16°C° 0 mm 3 mps 745 mmHg 80%
15:00 +14°C° 0 mm 3 mps 745 mmHg 82%
16:00 +14°C° 0 mm 2 mps 745 mmHg 85%
17:00 +14°C° 0 mm 2 mps 746 mmHg 86%
18:00 +13°C° 0 mm 2 mps 746 mmHg 88%
19:00 +12°C° 0 mm 2 mps 746 mmHg 90%
20:00 +12°C° 0 mm 2 mps 747 mmHg 90%
21:00 +12°C° 0 mm 1 mps 747 mmHg 90%
22:00 +11°C° 0 mm 1 mps 747 mmHg 90%
23:00 +11°C° 0 mm 1 mps 747 mmHg 90%

Day after tomorrow, 25 October, Sunday

Time Temperature Precipitation Wind Pressure Humidity
00:00 +11°C° 0 mm 1 mps 747 mmHg 90%
01:00 +11°C° 0 mm 1 mps 747 mmHg 90%
02:00 +10°C° 0 mm 1 mps 747 mmHg 90%
03:00 +10°C° 0 mm 1 mps 747 mmHg 90%
04:00 +10°C° 0 mm 1 mps 747 mmHg 90%
05:00 +10°C° 0 mm 1 mps 747 mmHg 90%
06:00 +10°C° 0 mm 1 mps 747 mmHg 91%
07:00 +10°C° 0 mm 1 mps 747 mmHg 91%
08:00 +12°C° 0 mm 1 mps 747 mmHg 84%
09:00 +14°C° 0 mm 2 mps 747 mmHg 78%
10:00 +15°C° 0 mm 2 mps 747 mmHg 71%
11:00 +16°C° 0 mm 2 mps 746 mmHg 68%
12:00 +17°C° 0 mm 2 mps 746 mmHg 65%
13:00 +17°C° 0 mm 3 mps 746 mmHg 62%
14:00 +16°C° 0 mm 3 mps 745 mmHg 67%
15:00 +15°C° 0 mm 2 mps 745 mmHg 72%
16:00 +14°C° 0 mm 2 mps 745 mmHg 77%
17:00 +13°C° 0 mm 2 mps 745 mmHg 81%
18:00 +13°C° 0 mm 2 mps 745 mmHg 85%
19:00 +12°C° 0 mm 2 mps 745 mmHg 89%
20:00 +10°C° 0 mm 2 mps 745 mmHg 89%
21:00 +10°C° 0 mm 2 mps 744 mmHg 89%
22:00 +9°C° 0 mm 2 mps 744 mmHg 88%
23:00 +9°C° 0 mm 2 mps 744 mmHg 88%

, 26 October, Monday

Time Temperature Precipitation Wind Pressure Humidity
00:00 +9°C° 0 mm 2 mps 743 mmHg 88%
01:00 +9°C° 0 mm 2 mps 743 mmHg 87%
02:00 +9°C° 0 mm 2 mps 743 mmHg 87%
03:00 +9°C° 0 mm 2 mps 742 mmHg 88%
04:00 +10°C° 0 mm 1 mps 742 mmHg 88%
05:00 +9°C° 0 mm 2 mps 742 mmHg 88%
06:00 +9°C° 0 mm 2 mps 741 mmHg 89%
07:00 +9°C° 0 mm 2 mps 741 mmHg 89%
08:00 +12°C° 0 mm 2 mps 741 mmHg 84%
09:00 +12°C° 0 mm 3 mps 741 mmHg 79%
10:00 +14°C° 0 mm 3 mps 740 mmHg 74%
11:00 +16°C° 0 mm 3 mps 740 mmHg 70%
12:00 +17°C° 0 mm 4 mps 740 mmHg 66%
13:00 +18°C° 0 mm 4 mps 739 mmHg 63%
14:00 +17°C° 0 mm 4 mps 739 mmHg 67%
15:00 +15°C° 0 mm 4 mps 739 mmHg 71%
16:00 +14°C° 0 mm 4 mps 738 mmHg 75%
17:00 +13°C° 0 mm 4 mps 738 mmHg 79%
18:00 +12°C° 0 mm 4 mps 738 mmHg 82%
19:00 +12°C° 0 mm 3 mps 739 mmHg 86%
20:00 +11°C° 0 mm 3 mps 739 mmHg 86%
21:00 +11°C° 0 mm 3 mps 739 mmHg 87%
22:00 +11°C° 0 mm 3 mps 739 mmHg 87%
23:00 +11°C° 0 mm 3 mps 739 mmHg 88%

26 October, Monday

Time Temperature Precipitation Wind Pressure Humidity
00:00 +9°C° 0 mm 2 mps 743 mmHg 88%
01:00 +9°C° 0 mm 2 mps 743 mmHg 87%
02:00 +9°C° 0 mm 2 mps 743 mmHg 87%
03:00 +9°C° 0 mm 2 mps 742 mmHg 88%
04:00 +10°C° 0 mm 1 mps 742 mmHg 88%
05:00 +9°C° 0 mm 2 mps 742 mmHg 88%
06:00 +9°C° 0 mm 2 mps 741 mmHg 89%
07:00 +9°C° 0 mm 2 mps 741 mmHg 89%
08:00 +12°C° 0 mm 2 mps 741 mmHg 84%
09:00 +12°C° 0 mm 3 mps 741 mmHg 79%
10:00 +14°C° 0 mm 3 mps 740 mmHg 74%
11:00 +16°C° 0 mm 3 mps 740 mmHg 70%
12:00 +17°C° 0 mm 4 mps 740 mmHg 66%
13:00 +18°C° 0 mm 4 mps 739 mmHg 63%
14:00 +17°C° 0 mm 4 mps 739 mmHg 67%
15:00 +15°C° 0 mm 4 mps 739 mmHg 71%
16:00 +14°C° 0 mm 4 mps 738 mmHg 75%
17:00 +13°C° 0 mm 4 mps 738 mmHg 79%
18:00 +12°C° 0 mm 4 mps 738 mmHg 82%
19:00 +12°C° 0 mm 3 mps 739 mmHg 86%
20:00 +11°C° 0 mm 3 mps 739 mmHg 86%
21:00 +11°C° 0 mm 3 mps 739 mmHg 87%
22:00 +11°C° 0 mm 3 mps 739 mmHg 87%
23:00 +11°C° 0 mm 3 mps 739 mmHg 88%

27 October, Tuesday

Time Temperature Precipitation Wind Pressure Humidity
00:00 +11°C° 0 mm 3 mps 739 mmHg 88%
01:00 +11°C° 0 mm 3 mps 739 mmHg 89%
02:00 +11°C° 0 mm 3 mps 739 mmHg 88%
03:00 +10°C° 0 mm 3 mps 739 mmHg 88%
04:00 +10°C° 0 mm 2 mps 739 mmHg 88%
05:00 +10°C° 0 mm 2 mps 740 mmHg 88%
06:00 +10°C° 0 mm 2 mps 740 mmHg 88%
07:00 +12°C° 0 mm 2 mps 740 mmHg 88%
08:00 +12°C° 0 mm 3 mps 740 mmHg 82%
09:00 +14°C° 0 mm 3 mps 740 mmHg 75%
10:00 +17°C° 0 mm 3 mps 741 mmHg 69%
11:00 +18°C° 0 mm 3 mps 741 mmHg 66%
12:00 +19°C° 0 mm 3 mps 741 mmHg 64%
13:00 +19°C° 0 mm 3 mps 741 mmHg 61%
14:00 +18°C° 0 mm 3 mps 741 mmHg 66%
15:00 +17°C° 0 mm 2 mps 741 mmHg 71%
16:00 +16°C° 0 mm 2 mps 741 mmHg 75%
17:00 +15°C° 0 mm 2 mps 741 mmHg 78%
18:00 +14°C° 0 mm 2 mps 742 mmHg 80%
19:00 +14°C° 0 mm 1 mps 742 mmHg 83%
20:00 +13°C° 0 mm 1 mps 742 mmHg 84%
21:00 +13°C° 0 mm 1 mps 742 mmHg 85%
22:00 +12°C° 0 mm 1 mps 743 mmHg 86%
23:00 +12°C° 0 mm 1 mps 743 mmHg 86%

28 October, Wednesday

Time Temperature Precipitation Wind Pressure Humidity
00:00 +12°C° 0 mm 1 mps 743 mmHg 87%
01:00 +11°C° 0 mm 1 mps 743 mmHg 87%
02:00 +10°C° 0 mm 2 mps 743 mmHg 89%
03:00 +10°C° 0 mm 2 mps 743 mmHg 90%
04:00 +10°C° 0 mm 2 mps 743 mmHg 92%
05:00 +9°C° 0 mm 2 mps 743 mmHg 92%
06:00 +9°C° 0 mm 2 mps 743 mmHg 93%
07:00 +9°C° 0 mm 2 mps 743 mmHg 93%
08:00 +10°C° 0 mm 2 mps 744 mmHg 87%
09:00 +13°C° 0 mm 2 mps 744 mmHg 81%
10:00 +14°C° 0 mm 2 mps 744 mmHg 75%
11:00 +13°C° 0 mm 3 mps 744 mmHg 72%
12:00 +14°C° 0 mm 3 mps 744 mmHg 70%
13:00 +14°C° 0 mm 3 mps 744 mmHg 67%
14:00 +13°C° 0 mm 3 mps 745 mmHg 69%
15:00 +13°C° 0 mm 2 mps 745 mmHg 72%
16:00 +13°C° 0 mm 2 mps 745 mmHg 74%
17:00 +12°C° 0 mm 2 mps 745 mmHg 76%
18:00 +12°C° 0 mm 1 mps 746 mmHg 77%
19:00 +11°C° 0 mm 1 mps 746 mmHg 79%
20:00 +11°C° 0 mm 1 mps 746 mmHg 81%
21:00 +11°C° 0 mm 1 mps 746 mmHg 82%
22:00 +10°C° 0 mm 1 mps 747 mmHg 84%
23:00 +10°C° 0 mm 1 mps 747 mmHg 86%
Show more